Tracking 31027 objects as of 19-Jul-2025
HD Live streaming from Space Station
objects crossing your sky now

STARLINK-4768

Track STARLINK-4768 now!
10-day predictions
STARLINK-4768 is classified as:


NORAD ID: 53806
Int'l Code: 2022-111AK
Perigee: 546.2 km
Apogee: 547.6 km
Inclination: 53.2 °
Period: 95.4 minutes
Semi major axis: 6917 km
RCS: Unknown
Launch date: September 11, 2022
Source: United States (US)
Launch site: AIR FORCE EASTERN TEST RANGE (AFETR)
Your satellite tracking list
STARLINK-5088
Track 1 satellite(s)




NASA's NSSDC Master Catalog

Two Line Element Set (TLE):
1 53806U 22111AK  25199.76117698  .00000258  00000-0  34302-4 0  9991
2 53806  53.2162 219.1127 0001005  74.6427 285.4676 15.08836148158716
Source of the keplerian elements: AFSPC